Location: Colossi of Memnon
(25.7167°N, 32.6167°E)
Time: 20:05:01
(UTC+00:00)

YAOGAN 6 - Pass Details

Date: 05 March 2021
Orbit: 464 x 502 km, 97.0° (Epoch: 21 April)

Event Time Altitude Azimuth Distance (km) Brightness Sun altitude
Rises 03:35:22 0° 4° (N) 2,508 6.2 -8.4°
Reaches altitude 10° 03:37:28 10° 358° (N) 1,625 5.2 -7.9°
Maximum altitude 03:40:50 49° 283° (WNW) 606 2.7 -7.1°
Drops below altitude 10° 03:44:11 10° 207° (SSW) 1,608 5.0 -6.4°
Sets 03:46:15 0° 202° (SSW) 2,479 6.0 -5.9°
